Home > Weather > Viseu > Past weeks

Flag for Portugal Past Weather in Viseu, Portugal — Yesterday and Last 2 Weeks

Now
73 °F

Mild.


Feels Like: 75 °F
Forecast: 63 / 98 °F
Wind: 5 mph from Northeast

Location: Viseu

Current Time: Jul 28, 2016 at 4:00:04 AM

Latest Report: Jul 28, 2016 at 2:00 AM


Visibility: N/A

Pressure: 30.00 "Hg

Humidity: 68%

Dew Point: 61 °F

Location of ViseuLocation

Past Weather in Viseu — Graph

°F

Viseu Temperature Yesterday

Maximum temperature yesterday: 97 °F (at 3:00 PM)
Minimum temperature yesterday: 65 °F (at 12:00 AM)
Average temperature yesterday: 78 °F

High & Low Weather Summary for the Past Weeks

 TemperatureHumidityPressure
High98 °F (Jul 25, 2:00 PM)99% (Jul 21, 1:00 AM)30.20 "Hg (Jul 21, 1:00 AM)
Low55 °F (Jul 22, 4:00 AM)17% (Jul 25, 4:00 PM)29.85 "Hg (Jul 18, 4:00 PM)
Average75 °F48%30.02 "Hg
* Reported Jul 13 10:00 AM — Jul 28 2:00 AM, Viseu, Weather by CustomWeather, © 2016

Note: Actual official high and low records may vary slightly from our data, if they occured in-between our weather recording intervals... More about our weather records

Advertising

Viseu Weather History for the Previous 24 Hours

Scroll right to see more
 ConditionsComfort  
Time TempWeatherWind HumidityBarometerVisibility
2:00 AM
Thu, Jul 28
73 °FMild.5 mph68%30.00 "HgN/A
1:00 AM74 °FMild.2 mph71%30.00 "HgN/A
12:00 AM72 °FMild.2 mph72%30.01 "HgN/A
11:00 PM
Wed, Jul 27
72 °FMild.2 mph76%30.02 "HgN/A
10:00 PM73 °FMild.2 mph73%30.00 "HgN/A
9:00 PM78 °FWarm.2 mph66%29.96 "HgN/A
8:00 PM83 °FWarm.6 mph57%29.93 "HgN/A
7:00 PM88 °FWarm.6 mph48%29.91 "HgN/A
6:00 PM93 °FHot.5 mph34%29.89 "HgN/A
5:00 PM96 °FExtremely hot.2 mph25%29.89 "HgN/A
4:00 PM93 °FExtremely hot.2 mph30%29.91 "HgN/A
3:00 PM97 °FExtremely hot.3 mph27%29.92 "HgN/A
2:00 PM94 °FPassing clouds.2 mph31%29.94 "Hg19 mi
1:00 PM91 °FPassing clouds.5 mph37%29.96 "Hg19 mi
12:00 PM86 °FPassing clouds.6 mph40%29.98 "Hg19 mi
11:00 AM83 °FPassing clouds.6 mph46%30.00 "Hg19 mi
10:00 AM76 °FPassing clouds.7 mph56%30.02 "Hg19 mi
9:00 AM73 °FMild.8 mph58%30.02 "HgN/A
8:00 AM70 °FMild.6 mph65%30.03 "HgN/A
7:00 AM67 °FMild.5 mph73%30.03 "HgN/A
6:00 AM67 °FMild.6 mph70%30.02 "HgN/A
5:00 AM68 °FMild.7 mph65%30.02 "HgN/A
4:00 AM66 °FMild.5 mph67%30.03 "HgN/A
Weather by CustomWeather, © 2016

See weather overviewHow to use our weather pages